User: anonymous   Login
Location: Hopkins Observatory
(42.6965°N, 73.1843°W)
Time: 19:30:52
(UTC-05:00)
Language:

RS-15 - Orbit

View from above orbital plane
View from above orbital plane
View from above satellite
View from above satellite

Ground track
Ground track

The orbit data is extracted from the following two-line orbital elements,

1 23439U 94085A   16043.53723469 -.00000033  00000-0  28060-3 0  9996
2 23439  64.8175 292.7601 0162258 329.7067  29.4562 11.27564473870259
Epoch (UTC): 12 February 2016 12:53:37
Eccentricity: 0.0162258
inclination: 64.8175°
perigee height: 1886 km
apogee height: 2159 km
right ascension of ascending node: 292.7601°
argument of perigee: 329.7067°
revolutions per day: 11.27564473
mean anomaly at epoch: 29.4562°
orbit number at epoch: 87025

The dashed part of the orbit path shows where the satellite is in the earth's shadow,  

DLR